Location: Fenile
(46.0500°N, 9.5500°E)
Time: 13:22:46
(UTC+00:00)

USA 186 - Pass Details

Date: 03 March 2021
Orbit: 261 x 429 km, 96.9° (Epoch: 15 April)

Event Time Altitude Azimuth Distance (km) Brightness Sun altitude
Exits shadow 18:28:20 17° 28° (NNE) 864 3.1 -14.2°
Drops below altitude 10° 18:29:12 10° 13° (NNE) 1,165 3.9 -14.3°
Sets 18:31:17 0° 359° (N) 2,028 5.3 -14.7°
